User: anonymous   Login
Location: Eymir
(36.7333°N, 29.7833°E)
Time: 00:04:00
(UTC+00:00)
Language:

Cosmos 2074 Rocket - Orbit

View from above orbital plane
View from above orbital plane
View from above satellite
View from above satellite

Ground track
Ground track

The orbit is defined by the following mean orbital elements,

1 20578U          26064.67969308 +.00000000 +00000-0 +92111-4 0 00009
2 20578  82.9471 156.2152 0014181  77.3260  31.2759 13.76636194    00
Epoch (UTC): 05 March 2026 16:18:45
Eccentricity: 0.0014181
inclination: 82.9471°
perigee height: 965 km
apogee height: 986 km
right ascension of ascending node: 156.2152°
argument of perigee: 77.3260°
revolutions per day: 13.76636194
mean anomaly at epoch: 31.2759°

The dashed part of the orbit path shows where the satellite is in the earth's shadow,  

DLR